Regional Weather Roundup
Issued by NWS Albany, NY

Home | Current Version | Previous Version | Text Only | Print | Product List | Glossary On
Versions: 1 2 3 4 5 6 7 8 9 10 11 12 13 14 15 16 17 18 19 20 21 22 23 24 25 26 27
000
ASUS41 KALY 241710
RWRALY

NEW YORK STATE HOURLY WEATHER ROUNDUP
NATIONAL WEATHER SERVICE ALBANY NY
100 PM EDT WED MAY 24 2017

NOTE: "FAIR" INDICATES FEW OR NO CLOUDS BELOW 12,000 FEET WITH NO
SIGNIFICANT WEATHER AND/OR NO OBSTRUCTIONS TO VISIBILITY.

NYZ032-033-038>043-046>054-057>066-NYZ062>081-082-084-241800-
EAST


CITY           SKY/WX    TMP DP  RH WIND       PRES   REMARKS
ALBANY         PTSUNNY   72  50  45 VRB5      29.76F
GLENS FALLS    NOT AVBL
POUGHKEEPSIE   PTSUNNY   69  50  50 NE7       29.75F
NEWBURGH       PTSUNNY   68  55  64 VRB7      29.78S
MONTGOMERY     FAIR      69  49  48 SE7       29.77R
WHITE PLAINS   PTSUNNY   68  50  52 E9        29.76S
ISLIP          CLOUDY    64  53  67 NE13G20   29.76F
NEW YORK CITY  PTSUNNY   65  51  60 NE17      29.76R
CENTRAL PARK   CLOUDY    66  51  58 NE12      29.79R
$$

NYZ005>009-017-018-044>046-055-056-241800-
CENTRAL


CITY           SKY/WX    TMP DP  RH WIND       PRES   REMARKS
FULTON         FAIR      73  50  44 VRB3      29.71S
SYRACUSE       FAIR      74  51  44 NE6       29.69F
ROME           FAIR      74  49  41 SE12      29.73F
ELMIRA         FAIR      72  45  37 SE10G16   29.69F
BINGHAMTON     FAIR      69  47  45 SE15G22   29.75R
MONTICELLO     FAIR      64  48  55 E6        29.80R
$$

NYZ026>034-041>043-087-241800-
NORTH


CITY           SKY/WX    TMP DP  RH WIND       PRES   REMARKS
WATERTOWN      FAIR      74  55  51 N12       29.70F
FORT DRUM      NOT AVBL
OGDENSBURG     FAIR      71  55  55 E6        29.75F
MASSENA        FAIR      68  53  58 N5        29.77F
SARANAC LAKE   FAIR      68  45  43 SW5       29.76F
PLATTSBURGH    FAIR      68  54  60 NE5       29.76F
$$

NYZ001>004-010>016-019>021-085-241800-
WEST


CITY           SKY/WX    TMP DP  RH WIND       PRES   REMARKS
NIAGARA FALLS  FAIR      76  38  25 E9        29.64F
BUFFALO        PTSUNNY   72  39  30 S9G20     29.64F
DUNKIRK        PTSUNNY   66  54  65 N7        29.64F
JAMESTOWN      CLOUDY    64  48  55 SE7       29.67S
WELLSVILLE     FAIR      71  46  40 S9G18     29.70F
ROCHESTER      PTSUNNY   74  43  32 SE20      29.69F
PENN YAN       FAIR      71  47  42 VRB5      29.71F
$$

             KEY
       WCI = WIND CHILL INDEX
       VSB = VISIBILITY
       HX  = HEAT INDEX
$$




USA.gov is the U.S. government's official web portal to all federal, state and local government web resources and services.